Regional Weather Roundup
Issued by NWS

Home | Current Version | Previous Version | Graphics & Text | Print | Product List | Glossary On
Versions: 1 2 3 4 5 6 7 8 9 10 11 12 13 14 15 16 17 18 19 20 21 22 23 24 25 26 27 28 29 30 31 32 33 34 35 36 37 38 39 40 41 42 43 44 45 46 47 48 49 50
105
ASUS43 KMKX 261421
RWRWI

WISCONSIN REGIONAL WEATHER ROUNDUP
NATIONAL WEATHER SERVICE MILWAUKEE/SULLIVAN WI
900 AM CDT WED APR 26 2017

NOTE: "FAIR" INDICATES FEW OR NO CLOUDS BELOW 12,000 FEET WITH NO
SIGNIFICANT WEATHER AND/OR OBSTRUCTIONS TO VISIBILITY.

WIZ001-002-006>008-014>016-023>028-261500-
NORTHWEST WISCONSIN

CITY           SKY/WX    TMP DP  RH WIND       PRES   REMARKS
SUPERIOR ARPT  LGT SNOW  32  32  99 NE20G30   29.61F WCI  20
ASHLAND        LGT SNOW  32  30  92 NE20G32   29.58F FOG     WCI  20
HAYWARD        LGT RAIN  33  30  88 NE15      29.50F FOG     WCI  23
SIREN          RAIN      34  33  95 NE10      29.52S WCI  26
CUMBERLAND     LGT RAIN  32  32 100 N13G21    29.46S WCI  22
RICE LAKE      LGT RAIN  36  34  94 N13       29.47S WCI  27
CHETEK         RAIN      37  37  97 N7        29.44F WCI  32
LADYSMITH      LGT RAIN  37  36  96 N10       29.45F WCI  30
EAU CLAIRE     RAIN      40  39  97 N9        29.40S FOG     WCI  34
MENOMONIE      RAIN      39  39 100 N8        29.44S WCI  34
NEW RICHMOND   RAIN      35  35  98 N12       29.48R WCI  27
OSCEOLA        RAIN      36  36 100 N5        29.52S WCI  32
$$

WIZ003>005-009-010-017-018-261500-
NORTH CENTRAL WISCONSIN

CITY           SKY/WX    TMP DP  RH WIND       PRES   REMARKS
MANITOWISH WTR CLOUDY    35  35 100 NE8       29.47F WCI  28
ARBOR VITAE    CLOUDY    39  38  96 NE6       29.45F
WOODRUFF       CLOUDY    39  38  96 NE6       29.45F
RHINELANDER    RAIN      48  48 100 NE7       29.41F FOG
EAGLE RIVER    LGT RAIN  42  42 100 NE7       29.45F
LAND O LAKES   CLOUDY    37  37 100 N6        29.49F WCI  32
PHILLIPS       LGT RAIN  37  37 100 N14       29.44F WCI  28
TOMAHAWK       RAIN      46  45  97 N5        29.42F
MEDFORD        CLOUDY    48  48  99 NE7       29.38F FOG
MERRILL        LGT RAIN  52  52 100 E8        29.40F
$$

WIZ029-030-035-036-043>047-261500-
CENTRAL WISCONSIN

CITY           SKY/WX    TMP DP  RH WIND       PRES   REMARKS
WAUSAU         CLOUDY    53  52  96 SE7       29.39R FOG
MOSINEE        CLOUDY    54  54 100 E7        29.41R FOG
MARSHFIELD     LGT RAIN  55  53  93 E10       29.37S FOG
STEVENS POINT  CLOUDY    53  53 100 E7        29.39F FOG
WAUPACA        LGT RAIN  58  57  94 SE3       29.41S
WAUTOMA        NOT AVBL
WISC RAPIDS    CLOUDY    58  57  97 E8        29.37F
CAMP DOUGLAS   CLOUDY    61  57  88 SE5       29.34F
$$

WIZ011>013-019>022-031-037>040-048>050-261500-
NORTHEAST WISCONSIN

CITY           SKY/WX    TMP DP  RH WIND       PRES   REMARKS
ANTIGO         CLOUDY    50  50 100 E8        29.42F FOG
SHAWANO        CLOUDY    54  51  89 NE6       29.44S
OCONTO         CLOUDY    55  51  85 E5        29.44S
STURGEON BAY   PTSUNNY   59  52  77 SE21G26   29.45F
GREEN BAY      PTSUNNY   61  56  83 SE12      29.41F
MANITOWOC      MOSUNNY   54  49  83 S17G25    29.45F
APPLETON       CLOUDY    61  52  72 SE9       29.39F
CLINTONVILLE   HVY RAIN  54  52  94 N3        29.43R
OSHKOSH        CLOUDY    63  54  72 S10       29.39F
$$

WIZ032>034-041-042-053>061-261500-
SOUTHWEST WISCONSIN

CITY           SKY/WX    TMP DP  RH WIND       PRES   REMARKS
LA CROSSE      CLOUDY    57  56  96 NW6       29.35F FOG
SPARTA         LGT RAIN  55  55 100 CALM      29.35F
VIROQUA        CLOUDY    56  56  99 S7        29.36S
BOSCOBEL       LGT RAIN  60  57  89 SW7       29.38R FOG
PRAIRIE DU CHI CLOUDY    57  56  97 SW8       29.38R
PLATTEVILLE    CLOUDY    59  59 100 S8        29.39R
$$

WIZ056-057-062-063-064-067-068-261500-
SOUTH CENTRAL WISCONSIN

CITY           SKY/WX    TMP DP  RH WIND       PRES   REMARKS
REEDSBURG      CLOUDY    62  55  77 S6        29.36S
BARABOO/DELLS  CLOUDY    63  53  69 S10       29.37R
LONE ROCK      LGT RAIN  62  56  80 CALM      29.35F
MINERAL POINT  RAIN      59  59 100 S7        29.37F
MADISON        RAIN      58  56  93 S15       29.39S FOG
MIDDLETON      CLOUDY    60  56  85 S14       29.41R
WATERTOWN      CLOUDY    65  56  74 S12       29.41R
MONROE         RAIN      55  55 100 SE7       29.38F
JANESVILLE     RAIN      61  59  94 SW12G23   29.40S
$$

WIZ051-052-058>065-066-070>072-261500-
SOUTHEAST WISCONSIN

CITY           SKY/WX    TMP DP  RH WIND       PRES   REMARKS
MILWAUKEE      PTSUNNY   66  56  70 S13       29.41F
WAUKESHA       MOSUNNY   63  54  72 SE12G23   29.41F
MILWAUKEE/TIMM SUNNY     66  52  59 S9G20     29.40F
RACINE         CLOUDY    58  51  78 S10       29.42F
KENOSHA        CLOUDY    67  55  65 S12G22    29.42F
FOND DU LAC    CLOUDY    64  53  67 S9        29.40F
SHEBOYGAN      MOSUNNY   58  53  84 S14G21    29.43F
WEST BEND      CLOUDY    66  55  68 S8G16     29.39F
JUNEAU         CLOUDY    63  55  75 S12       29.41R
$$

LSZ147-162-261500-
LAKE SUPERIOR

STATION/POSITION TIME  TEMP    WIND        PRES    WAVE
                       AIR SEA DIR/SP/G            HT/PER
                 (UTC) (F)     (DEG/KT/KT) (MB)    (FT/S)
DEVILS ISLAND    1400   32      40/ 34/ 38 1003.6F
PORT WING        1340   33      40/ 35/ 46 1002.7F
SAXON HARBOR     1404   34      50/ 24/ 27 1001.4R
$$

LMZ867-665-643>646-261500-
LAKE MICHIGAN

STATION/POSITION TIME  TEMP    WIND        PRES    WAVE
                       AIR SEA DIR/SP/G            HT/PER
                 (UTC) (F)     (DEG/KT/KT) (MB)    (FT/S)
CHAMBERS ISLAND  1340   42      10/  8/  9  998.0F
N MID LAKE BUOY  1350   42 37  100/ 10/ 12  999.7F   2/ 4
NORTHPORT PIER   1340   46      70/  8/  9  998.6F
KEWAUNEE LAKESHO 1354   48     170/ 10/ 11  997.5F
SHEBOYGAN LAKESH 1400   46     160/ 13/ 14  996.6F
PORT WASHINGTON  1400   50     140/  5/ 20  997.3
MILWAUKEE LAKESH 1400   49     130/ 15/ 16   N/A
S MID LAKE BUOY  1350   48 41  110/ 14/ 16  997.6F   2/ 4
KENOSHA   LAKESH 1400   52     180/ 11/ 19  997.0
$$

TC  - TEMPERATURE IN CELSIUS
VSB - VISIBILITY IN STATUTE MILES
WCI - WIND CHILL INDEX
HX  - HEAT INDEX





USA.gov is the U.S. government's official web portal to all federal, state and local government web resources and services.